User: anonymous   Login
Location: Unspecified
(0.0000°N, 0.0000°E)
Time: 00:23:26
(UTC+00:00)
Language:

KANOPUS-V-IK - Orbit

View from above orbital plane
View from above orbital plane
View from above satellite
View from above satellite

Ground track
Ground track

The orbit data is extracted from the following two-line orbital elements,

1 42825U 17042A   18022.19371607  .00000240  00000-0  14739-4 0  9996
2 42825  97.4316 293.6748 0001901  86.8948 273.2504 15.18779818 29140
Epoch (UTC): 22 January 2018 04:38:57
Eccentricity: 0.0001901
inclination: 97.4316°
perigee height: 508 km
apogee height: 511 km
right ascension of ascending node: 293.6748°
argument of perigee: 86.8948°
revolutions per day: 15.18779818
mean anomaly at epoch: 273.2504°
orbit number at epoch: 2914

The dashed part of the orbit path shows where the satellite is in the earth's shadow,  

DLR